Location: Taio
(46.3224°N, 11.0658°E)
Time: 22:48:26
(UTC+02:00)

ISS - Visible Passes

Search period start: 18 October 2019 00:00
Search period end: 27 October 2019 23:00
Orbit: 411 x 421 km, 51.6° (Epoch: 19 October)

Date Brightness Start Highest point End Pass type
(mag) Time Alt. Az. Time Alt. Az. Time Alt. Az.
24 Oct -1.2 06:48:59 10° S 06:51:35 21° SE 06:54:11 10° E visible
25 Oct -0.8 06:01:33 10° SSE 06:03:12 13° SE 06:04:50 10° ESE visible
26 Oct -2.9 06:47:38 10° SW 06:50:52 48° SE 06:54:08 10° ENE visible
27 Oct -2.1 05:00:51 21° S 05:02:22 30° SE 05:05:22 10° ENE visible
